Погода в Белянке

Россия / Республика Башкортостан     56°02′42″N   59°14′13″E
темп.,
°C
ветер,
м/с
пор.,
м/с
влажн.,
%
обл.,
%
осадки,
мм/ч
давл.,
гПа
погр.,
м
8 мая, сб
сб823:00+10юв116312 0.0 101810
02:00+8юв116538 0.0 101810
05:00+8ююз116590 0.0 101910
08:00+12юв0054100 0.0 1018148
11:00+18с1242100 0.0 1017944
14:00+18з2239100 0.0 10162079
17:00+18всв2244100 0.0 1016865
20:00+14с2362100 0.0 101661
9 мая, вс
вс923:00+11ссв1275100 0.0 101725
02:00+10св1176100 0.0 101713
05:00+9св1177100 0.0 101712
08:00+12всв1364100 0.0 1017197
11:00+17всв2245100 0.0 1017934
14:00+19ссв0236100 0.0 10171478
17:00+17с334585 0.0 1018548
20:00+14ссв23665 0.0 101852
10 мая, пн
пн1023:00+11св11697 0.0 101911
02:00+9всв11695 0.0 102010
05:00+8всв116977 0.0 102111
08:00+14вюв12545 0.0 1022200
11:00+19юв244064 0.0 10221526
14:00+22юв2331100 0.0 10212765
17:00+20зюз124396 0.0 1022174
20:00+16юв1251100 0.0 102332
11 мая, вт
вт1123:00+14ююв2255100 0.0 102313
02:00+12ююв1164100 0.0 102312
05:00+12ю2265100 0.0 102318
08:00+14ссз2562100 0.0 1024351
11:00+15зсз457490 0.5 1025721
14:00+15сз576990 1.1 10251054
17:00+17сз56385 1.1 10251699
20:00+13с49525 0.0 1026631
12 мая, ср
ср1223:00+8ссз2266100 0.0 102811
02:00+7сз116822 0.0 102910
05:00+6сз117096 0.0 103011
08:00+10с2456100 0.0 1030304
11:00+15ссз34385 0.0 10291205
14:00+18ссз353846 0.0 10281825
17:00+14с2656100 0.0 1028360
20:00+13ссз256877 0.0 1028192